Regional Weather Roundup
Issued by NWS

Home | Current Version | Previous Version | Graphics & Text | Print | Product List | Glossary On
Versions: 1 2 3 4 5 6 7 8 9 10 11 12 13 14 15 16 17 18 19 20 21 22 23 24 25 26 27 28 29 30 31 32 33 34 35 36 37 38 39 40 41 42 43 44 45 46 47 48 49 50
540
ASUS43 KTOP 231808
RWRKS

WEATHER ROUNDUP FOR KANSAS
NATIONAL WEATHER SERVICE GOODLAND KS
100 PM CDT WED MAY 23 2018

NOTE:  "FAIR" INDICATES FEW OR NO CLOUDS BELOW 12,000 FEET WITH NO
SIGNIFICANT WEATHER AND/OR OBSTRUCTIONS TO VISIBILITY.

KSZ001>006-013>018-027>032-041>047-231900-
NORTHWEST KANSAS

CITY           SKY/WX    TMP DP  RH WIND       PRES   REMARKS
GOODLAND       PTSUNNY   78  48  34 S21G32    29.99F
6HR MIN TEMP:  64; 6HR MAX TEMP:  80;

HAYS           CLOUDY    82  63  52 SE17      30.00F
HILL CITY      PTSUNNY   83  54  36 S16G24    29.99S
6HR MIN TEMP:  67; 6HR MAX TEMP:  84;

RUSSELL        CLOUDY    83  67  58 SE15      30.00F
6HR MIN TEMP:  68; 6HR MAX TEMP:  83;

$$

KSZ061>065-074>080-084>089-231900-
SOUTHWEST KANSAS

CITY           SKY/WX    TMP DP  RH WIND       PRES   REMARKS
DODGE CITY     CLOUDY    80  63  55 S23G29    30.04S
6HR MIN TEMP:  66; 6HR MAX TEMP:  81;

ELKHART        MOSUNNY   77  64  65 S18G24    30.08F
GARDEN CITY    MOSUNNY   82  58  43 SW24G30   30.03R
6HR MIN TEMP:  62; 6HR MAX TEMP:  82;

GREAT BEND     CLOUDY    83  65  54 S18       30.02F
LIBERAL        CLOUDY    79  60  52 S18       30.07S
PRATT          CLOUDY    84  63  49 S18G24    30.03F
6HR MIN TEMP:  66; 6HR MAX TEMP:  84;

$$

KSZ066>073-081>083-090>101-231900-
SOUTHEAST KANSAS

CITY           SKY/WX    TMP DP  RH WIND       PRES   REMARKS
CHANUTE        SUNNY     84  69  60 S6        30.09F
6HR MIN TEMP:  69; 6HR MAX TEMP:  85;

COFFEYVILLE    LGT RAIN  84  69  60 CALM      30.06F
6HR MIN TEMP:  66; 6HR MAX TEMP:  85;

HUTCHINSON     PTSUNNY   85  67  54 S14       30.03F
6HR MIN TEMP:  66; 6HR MAX TEMP:  87;

MEDICINE LODGE   N/A     85  67  54 SE14G24   30.02F
NEWTON         MOSUNNY   85  65  51 S14G21    30.07F
PARSONS        MOSUNNY   84  71  65 CALM      30.09F
6HR MIN TEMP:  68; 6HR MAX TEMP:  84;

WICHITA INTL   PTSUNNY   85  68  56 S13G20    30.05F
6HR MIN TEMP:  69; 6HR MAX TEMP:  85;

WICHITA JABRA  MOSUNNY   84  66  54 S13       30.06F
6HR MIN TEMP:  67; 6HR MAX TEMP:  85;

WICHITA MCCONL MOSUNNY   85  65  51 SW13      30.06F
WINFIELD       CLOUDY    84  69  60 S6        30.07F
6HR MIN TEMP:  68; 6HR MAX TEMP:  84;

$$

KSZ007>012-019>026-033>040-048>060-102>105-231900-
NORTHEAST KANSAS

CITY           SKY/WX    TMP DP  RH WIND       PRES   REMARKS
CONCORDIA      SUNNY     86  64  47 S14       30.02F
6HR MIN TEMP:  68; 6HR MAX TEMP:  87;

EMPORIA        MOSUNNY   80  67  64 S9        30.09S
6HR MIN TEMP:  65; 6HR MAX TEMP:  84;

LAWRENCE       MOSUNNY   88  67  49 S8        30.08F
6HR MIN TEMP:  67; 6HR MAX TEMP:  88;

MANHATTAN      MOSUNNY   89  66  46 S9G20     30.04F
6HR MIN TEMP:  69; 6HR MAX TEMP:  89;

MARYSVILLE     MOSUNNY   86  68  54 S9G22     30.05F
OLATHE IND     MOSUNNY   86  66  51 S8        30.10F
6HR MIN TEMP:  68; 6HR MAX TEMP:  86;

OLATHE EXE     MOSUNNY   84  68  58 S10       30.10F
6HR MIN TEMP:  66; 6HR MAX TEMP:  84;

SALINA         MOSUNNY   89  65  44 S16       30.03F
6HR MIN TEMP:  69; 6HR MAX TEMP:  89;

TOPEKA BILLARD MOSUNNY   86  68  54 S8        30.07F
6HR MIN TEMP:  66; 6HR MAX TEMP:  87;

TOPEKA FORBES  MOSUNNY   88  68  51 S9G18     30.08F
6HR MIN TEMP:  67; 6HR MAX TEMP:  88;

$$




USA.gov is the U.S. government's official web portal to all federal, state and local government web resources and services.